Location: Dos Palmas
(32.4468°N, 116.8732°W)
Time: 02:15:22
(UTC+00:00)

IRS-1C - Pass Details

Date: 20 June 2021
Orbit: 815 x 817 km, 98.9° (Epoch: 27 July)

Event Time Altitude Azimuth Distance (km) Brightness Sun altitude
Rises 10:33:12 0° 15° (NNE) 3,346 8.4 -21.8°
Reaches altitude 10° 10:35:33 10° 17° (NNE) 2,411 7.5 -21.4°
Maximum altitude 10:40:53 73° 102° (ESE) 852 4.2 -20.7°
Enters shadow 10:43:30 31° 181° (S) 1,402 4.9 -20.3°
